UAE6AL LFMN-OMDB

Flight info

Callsign UAE6AL
Flight time N/A
Altitude 35000
Route SODRI DCT RAPUR DCT RATAP DCT BTA DCT DOKAR DCT SUNEV DCT VELAD/N0473F370 DCT VEXUV DCT MALOG DCT EDOPA DCT PEVIR DCT CDC DCT BELIX DCT SALUN N705 MMA P751 DASUM Y234 FYM M872 BOVET/N0479F390 M872 BDB Y214 RAPMA DCT KUVSO DCT RIBOT M550 GOLGU DCT UKRAG/N0456F330 G783 ASPED Q308 KIPOK Q568 IMPED
Aircraft B77W/H-SDE2E3FGHIJ1J3J4J5M1P2RWXY/LB1D1

Departure

Time N/A
Airport Nice-Côte d'Azur Airport (LFMN)

Arrival

Time 2026-04-25 00:55
Airport Dubai International Airport (OMDB)
Time Latitude Longitude Altitude Speed Heading
2026-04-24 18:54 43.04206 8.12420 28556 ft 461 kts 97°
2026-04-24 18:55 43.03198 8.21066 29453 ft 467 kts 97°
2026-04-24 18:55 43.02683 8.25462 29861 ft 470 kts 97°
2026-04-24 18:55 43.02164 8.29883 30250 ft 472 kts 97°
2026-04-24 18:56 43.01642 8.34308 30753 ft 471 kts 98°
2026-04-24 18:56 43.00889 8.38657 31263 ft 472 kts 109°
2026-04-24 18:56 42.99409 8.42658 31738 ft 472 kts 117°
2026-04-24 18:56 42.97768 8.46546 32174 ft 472 kts 118°
2026-04-24 18:57 42.96168 8.50385 32633 ft 471 kts 117°
2026-04-24 18:57 42.94586 8.54290 33103 ft 469 kts 116°
2026-04-24 18:57 42.93039 8.58192 33588 ft 467 kts 116°
2026-04-24 18:57 42.91508 8.62091 34014 ft 466 kts 116°
2026-04-24 18:58 42.89978 8.65981 34416 ft 465 kts 116°
2026-04-24 18:58 42.88444 8.69863 34784 ft 465 kts 116°
2026-04-24 18:58 42.86908 8.73743 35061 ft 467 kts 116°
2026-04-24 18:59 42.83799 8.81579 35118 ft 469 kts 116°
2026-04-24 18:59 42.80733 8.89282 35126 ft 463 kts 116°
2026-04-24 19:00 42.77667 8.96976 35139 ft 462 kts 116°
2026-04-24 19:00 42.74600 9.04658 35140 ft 462 kts 116°
2026-04-24 19:01 42.71522 9.12338 35147 ft 462 kts 116°
2026-04-24 19:01 42.68447 9.20024 35157 ft 465 kts 116°
2026-04-24 19:02 42.65864 9.26474 35154 ft 470 kts 116°
2026-04-24 19:02 42.62231 9.35516 35152 ft 468 kts 116°
2026-04-24 19:03 42.59110 9.43262 35159 ft 467 kts 116°
2026-04-24 19:03 42.56335 9.51184 35148 ft 463 kts 107°
2026-04-24 19:04 42.54238 9.59352 35153 ft 461 kts 107°
2026-04-24 19:04 42.52092 9.67539 35157 ft 461 kts 107°
2026-04-24 19:05 42.49991 9.75726 35158 ft 459 kts 103°
2026-04-24 19:05 42.48451 9.84080 35150 ft 458 kts 106°
2026-04-24 19:06 42.45852 9.91989 35161 ft 463 kts 117°
2026-04-24 19:06 42.42396 9.99302 35163 ft 465 kts 120°
2026-04-24 19:07 42.38847 10.06626 35157 ft 466 kts 120°
2026-04-24 19:07 42.35911 10.12730 35158 ft 466 kts 120°
2026-04-24 19:08 42.31794 10.21334 35152 ft 466 kts 120°
2026-04-24 19:08 42.28291 10.28647 35145 ft 467 kts 120°
2026-04-24 19:09 42.24761 10.35997 35146 ft 466 kts 120°
2026-04-24 19:09 42.21226 10.43336 35148 ft 466 kts 120°
2026-04-24 19:10 42.17691 10.50659 35149 ft 466 kts 120°
2026-04-24 19:10 42.14176 10.57924 35148 ft 466 kts 120°
2026-04-24 19:11 42.10633 10.65227 35147 ft 465 kts 120°
2026-04-24 19:11 42.07089 10.72518 35148 ft 465 kts 120°
2026-04-24 19:12 42.03519 10.79780 35157 ft 466 kts 121°
2026-04-24 19:12 42.01682 10.83395 35325 ft 470 kts 121°
2026-04-24 19:12 41.99828 10.87003 35669 ft 469 kts 121°
2026-04-24 19:12 41.97974 10.90600 36010 ft 468 kts 122°
2026-04-24 19:13 41.96746 10.92981 36166 ft 469 kts 122°
2026-04-24 19:13 41.94288 10.97758 36509 ft 470 kts 121°
2026-04-24 19:13 41.92431 11.01370 36783 ft 470 kts 122°
2026-04-24 19:13 41.90579 11.04971 37129 ft 468 kts 122°
2026-04-24 19:14 41.88723 11.08580 37134 ft 471 kts 122°
2026-04-24 19:14 41.85037 11.15734 37128 ft 460 kts 122°
2026-04-24 19:15 41.81436 11.22709 37127 ft 457 kts 122°
2026-04-24 19:15 41.77816 11.29709 37133 ft 457 kts 122°
2026-04-24 19:16 41.72370 11.40207 37141 ft 458 kts 122°
2026-04-24 19:16 41.68722 11.47216 37141 ft 460 kts 122°
2026-04-24 19:17 41.65059 11.54240 37142 ft 461 kts 122°
2026-04-24 19:17 41.61411 11.61218 37138 ft 461 kts 122°
2026-04-24 19:18 41.57729 11.68245 37131 ft 462 kts 122°
2026-04-24 19:18 41.54039 11.75268 37129 ft 462 kts 122°
2026-04-24 19:19 41.50349 11.82278 37129 ft 461 kts 122°
2026-04-24 19:19 41.46683 11.89226 37130 ft 461 kts 122°
2026-04-24 19:20 41.42989 11.96211 37129 ft 461 kts 122°
2026-04-24 19:20 41.39296 12.03178 37130 ft 460 kts 122°
2026-04-24 19:21 41.35599 12.10136 37130 ft 460 kts 122°
2026-04-24 19:21 41.31923 12.17038 37128 ft 460 kts 122°
2026-04-24 19:22 41.28218 12.23982 37131 ft 460 kts 122°
2026-04-24 19:22 41.24510 12.30919 37129 ft 461 kts 122°
2026-04-24 19:23 41.20791 12.37855 37129 ft 461 kts 123°
2026-04-24 19:23 41.17089 12.44745 37130 ft 462 kts 123°
2026-04-24 19:24 41.13353 12.51684 37123 ft 462 kts 123°
2026-04-24 19:24 41.09606 12.58626 37114 ft 463 kts 123°
2026-04-24 19:25 41.05848 12.65574 37111 ft 464 kts 123°
2026-04-24 19:25 41.02107 12.72475 37109 ft 464 kts 123°
2026-04-24 19:26 40.98337 12.79413 37112 ft 464 kts 123°
2026-04-24 19:26 40.94563 12.86345 37111 ft 464 kts 123°
2026-04-24 19:27 40.90780 12.93275 37109 ft 465 kts 123°
2026-04-24 19:27 40.86986 13.00209 37099 ft 465 kts 123°
2026-04-24 19:28 40.83188 13.07139 37103 ft 465 kts 123°
2026-04-24 19:28 40.79397 13.14041 37101 ft 464 kts 123°
2026-04-24 19:29 40.73728 13.24333 37101 ft 463 kts 123°
2026-04-24 19:30 40.69922 13.31212 37101 ft 464 kts 124°
2026-04-24 19:30 40.65910 13.37886 37095 ft 465 kts 127°
2026-04-24 19:31 40.61846 13.44464 37105 ft 465 kts 127°
2026-04-24 19:31 40.57793 13.51111 37105 ft 465 kts 126°
2026-04-24 19:32 40.53744 13.57769 37102 ft 466 kts 126°
2026-04-24 19:32 40.49686 13.64420 37101 ft 466 kts 126°
2026-04-24 19:33 40.46305 13.69953 37102 ft 466 kts 126°
2026-04-24 19:33 40.41571 13.77686 37112 ft 466 kts 126°
2026-04-24 19:34 40.38181 13.83202 37110 ft 467 kts 126°
2026-04-24 19:34 40.34095 13.89839 37114 ft 467 kts 126°
2026-04-24 19:35 40.30003 13.96478 37113 ft 468 kts 126°
2026-04-24 19:35 40.25899 14.03117 37108 ft 469 kts 127°
2026-04-24 19:36 40.21809 14.09706 37105 ft 469 kts 127°
2026-04-24 19:36 40.17684 14.16343 37094 ft 470 kts 127°
2026-04-24 19:37 40.13551 14.22983 37099 ft 470 kts 127°
2026-04-24 19:37 40.09410 14.29621 37084 ft 470 kts 127°
2026-04-24 19:38 40.05299 14.36196 37083 ft 470 kts 127°
2026-04-24 19:38 40.01161 14.42801 37091 ft 469 kts 127°
2026-04-24 19:39 39.97027 14.49386 37083 ft 469 kts 127°
2026-04-24 19:39 39.92909 14.55931 37096 ft 469 kts 127°
2026-04-24 19:40 39.88763 14.62509 37100 ft 469 kts 127°
2026-04-24 19:40 39.84609 14.69085 37102 ft 470 kts 127°
2026-04-24 19:41 39.80444 14.75663 37084 ft 471 kts 127°
2026-04-24 19:41 39.76300 14.82195 37098 ft 471 kts 127°
2026-04-24 19:42 39.72117 14.88774 37104 ft 471 kts 127°
2026-04-24 19:42 39.67935 14.95340 37092 ft 472 kts 127°
2026-04-24 19:43 39.63738 15.01913 37102 ft 472 kts 127°
2026-04-24 19:43 39.59565 15.08435 37103 ft 472 kts 127°
2026-04-24 19:44 39.55362 15.14990 37105 ft 472 kts 127°
2026-04-24 19:44 39.51159 15.21533 37111 ft 472 kts 127°
2026-04-24 19:45 39.46949 15.28074 37107 ft 472 kts 127°
2026-04-24 19:45 39.42724 15.34622 37095 ft 472 kts 127°
2026-04-24 19:46 39.38537 15.41100 37107 ft 472 kts 127°
2026-04-24 19:46 39.34317 15.47613 37103 ft 472 kts 127°
2026-04-24 19:47 39.30095 15.54118 37094 ft 472 kts 127°
2026-04-24 19:47 39.25862 15.60626 37108 ft 472 kts 127°
2026-04-24 19:48 39.21656 15.67080 37112 ft 472 kts 127°
2026-04-24 19:48 39.15293 15.76817 37108 ft 473 kts 127°
2026-04-24 19:49 39.06810 15.89752 37111 ft 474 kts 127°
2026-04-24 19:50 38.98263 16.02731 37114 ft 476 kts 127°
2026-04-24 19:51 38.91830 16.12464 37111 ft 477 kts 127°
2026-04-24 19:52 38.85374 16.22205 37100 ft 477 kts 127°
2026-04-24 19:52 38.81099 16.28640 37104 ft 477 kts 127°
2026-04-24 19:53 38.76778 16.35132 37097 ft 478 kts 127°
2026-04-24 19:54 38.70334 16.44907 37106 ft 478 kts 127°
2026-04-24 19:54 38.66086 16.51415 37110 ft 479 kts 127°
2026-04-24 19:55 38.62529 16.56850 37106 ft 479 kts 127°
2026-04-24 19:55 38.57514 16.64484 37102 ft 479 kts 127°
2026-04-24 19:56 38.53248 16.70956 37107 ft 479 kts 127°
2026-04-24 19:56 38.48946 16.77472 37105 ft 478 kts 127°
2026-04-24 19:57 38.44647 16.83969 37100 ft 478 kts 127°
2026-04-24 19:57 38.40375 16.90413 37101 ft 478 kts 127°
2026-04-24 19:58 38.36078 16.96882 37102 ft 478 kts 127°
2026-04-24 19:58 38.31778 17.03343 37100 ft 477 kts 127°
2026-04-24 19:59 38.27477 17.09793 37083 ft 477 kts 127°
2026-04-24 19:59 38.23177 17.16225 37083 ft 477 kts 127°
2026-04-24 20:00 38.18870 17.22658 37083 ft 477 kts 127°
2026-04-24 20:00 38.14589 17.29041 37099 ft 477 kts 127°
2026-04-24 20:01 38.10276 17.35455 37082 ft 477 kts 127°
2026-04-24 20:01 38.05967 17.41851 37082 ft 477 kts 127°
2026-04-24 20:02 38.02372 17.47180 37075 ft 477 kts 127°
2026-04-24 20:02 37.97310 17.54666 37071 ft 478 kts 128°
2026-04-24 20:03 37.92998 17.61029 37076 ft 478 kts 128°
2026-04-24 20:03 37.88646 17.67440 37067 ft 479 kts 128°
2026-04-24 20:04 37.84288 17.73846 37066 ft 480 kts 128°
2026-04-24 20:04 37.79953 17.80206 37065 ft 480 kts 128°
2026-04-24 20:05 37.75581 17.86607 37063 ft 480 kts 128°
2026-04-24 20:05 37.71215 17.92986 37065 ft 480 kts 128°
2026-04-24 20:06 37.66844 17.99360 37064 ft 480 kts 128°
2026-04-24 20:06 37.62473 18.05722 37056 ft 480 kts 128°
2026-04-24 20:07 37.58832 18.11012 37045 ft 480 kts 128°
2026-04-24 20:07 37.53734 18.18406 37031 ft 480 kts 128°
2026-04-24 20:08 37.49356 18.24742 37033 ft 479 kts 128°
2026-04-24 20:08 37.44970 18.31078 37042 ft 479 kts 128°
2026-04-24 20:09 37.40608 18.37364 37026 ft 480 kts 128°
2026-04-24 20:09 37.36214 18.43686 37029 ft 480 kts 128°
2026-04-24 20:10 37.31808 18.50011 37027 ft 481 kts 128°
2026-04-24 20:10 37.27389 18.56346 37021 ft 481 kts 128°
2026-04-24 20:11 37.22992 18.62634 37019 ft 482 kts 129°
2026-04-24 20:11 37.18553 18.68972 37018 ft 482 kts 129°
2026-04-24 20:12 37.14112 18.75302 37020 ft 483 kts 129°
2026-04-24 20:12 37.09687 18.81593 37018 ft 483 kts 129°
2026-04-24 20:13 37.05232 18.87918 37025 ft 483 kts 129°
2026-04-24 20:13 37.00773 18.94239 37029 ft 484 kts 129°
2026-04-24 20:14 36.96396 19.00633 37020 ft 483 kts 124°
2026-04-24 20:14 36.92767 19.07606 37023 ft 481 kts 119°
2026-04-24 20:15 36.89244 19.14714 37011 ft 481 kts 119°
2026-04-24 20:15 36.85694 19.21812 37005 ft 482 kts 120°
2026-04-24 20:16 36.82113 19.28902 36999 ft 482 kts 120°
2026-04-24 20:16 36.78523 19.35976 37000 ft 482 kts 120°
2026-04-24 20:17 36.74923 19.43055 37000 ft 483 kts 120°
2026-04-24 20:17 36.69528 19.53638 36993 ft 483 kts 120°
2026-04-24 20:18 36.65913 19.60716 36982 ft 484 kts 120°
2026-04-24 20:18 36.62303 19.67765 36984 ft 485 kts 120°
2026-04-24 20:19 36.58671 19.74845 36981 ft 485 kts 121°
2026-04-24 20:19 36.55032 19.81922 36983 ft 486 kts 121°
2026-04-24 20:20 36.51993 19.87820 36982 ft 486 kts 121°
2026-04-24 20:20 36.48332 19.94911 36981 ft 487 kts 121°
2026-04-24 20:21 36.44680 20.01971 36972 ft 488 kts 121°
2026-04-24 20:21 36.41006 20.09060 36974 ft 488 kts 121°
2026-04-24 20:22 36.37320 20.16158 36971 ft 488 kts 121°
2026-04-24 20:22 36.33628 20.23253 36974 ft 488 kts 121°
2026-04-24 20:23 36.29957 20.30289 36972 ft 488 kts 121°
2026-04-24 20:23 36.26260 20.37360 36971 ft 488 kts 121°
2026-04-24 20:24 36.22564 20.44415 36972 ft 487 kts 121°
2026-04-24 20:24 36.18895 20.51410 36973 ft 487 kts 121°
2026-04-24 20:25 36.15200 20.58438 36979 ft 486 kts 121°
2026-04-24 20:25 36.11502 20.65453 36985 ft 486 kts 122°
2026-04-24 20:26 36.07808 20.72449 36974 ft 485 kts 122°
2026-04-24 20:26 36.04140 20.79381 36964 ft 484 kts 122°
2026-04-24 20:27 36.00447 20.86345 36963 ft 483 kts 122°
2026-04-24 20:27 35.96760 20.93286 36947 ft 483 kts 122°
2026-04-24 20:28 35.93064 21.00231 36953 ft 484 kts 123°
2026-04-24 20:28 35.89373 21.07150 36959 ft 486 kts 123°
2026-04-24 20:29 35.85642 21.14130 36960 ft 487 kts 124°
2026-04-24 20:29 35.81898 21.21118 36956 ft 488 kts 124°
2026-04-24 20:30 35.78148 21.28108 36954 ft 488 kts 124°
2026-04-24 20:30 35.74417 21.35045 36954 ft 488 kts 124°
2026-04-24 20:31 35.70668 21.42003 36952 ft 486 kts 124°
2026-04-24 20:31 35.66936 21.48916 36952 ft 484 kts 124°
2026-04-24 20:32 35.63209 21.55805 36953 ft 482 kts 124°
2026-04-24 20:32 35.59513 21.62623 36952 ft 481 kts 124°
2026-04-24 20:33 35.55802 21.69457 36954 ft 480 kts 124°
2026-04-24 20:33 35.52091 21.76275 36953 ft 480 kts 125°
2026-04-24 20:34 35.48381 21.83080 36954 ft 480 kts 125°
2026-04-24 20:34 35.44662 21.89888 36954 ft 480 kts 125°
2026-04-24 20:35 35.40935 21.96695 36954 ft 481 kts 125°
2026-04-24 20:35 35.37197 22.03509 36956 ft 482 kts 126°
2026-04-24 20:36 35.33452 22.10327 36963 ft 482 kts 126°
2026-04-24 20:36 35.29722 22.17100 36952 ft 483 kts 126°
2026-04-24 20:37 35.25954 22.23930 36954 ft 483 kts 126°
2026-04-24 20:37 35.22212 22.30701 36953 ft 483 kts 126°
2026-04-24 20:38 35.18439 22.37513 36954 ft 484 kts 126°
2026-04-24 20:38 35.14660 22.44325 36953 ft 484 kts 127°
2026-04-24 20:39 35.10871 22.51141 36954 ft 485 kts 127°
2026-04-24 20:39 35.07093 22.57922 36955 ft 485 kts 127°
2026-04-24 20:40 35.03290 22.64738 36964 ft 485 kts 127°
2026-04-24 20:40 34.99475 22.71555 36962 ft 486 kts 127°
2026-04-24 20:41 34.95656 22.78376 36963 ft 487 kts 127°
2026-04-24 20:41 34.91854 22.85150 36963 ft 487 kts 127°
2026-04-24 20:42 34.88021 22.91966 36962 ft 487 kts 128°
2026-04-24 20:42 34.84190 22.98763 36963 ft 487 kts 128°
2026-04-24 20:43 34.80353 23.05558 36963 ft 486 kts 128°
2026-04-24 20:43 34.76539 23.12301 36963 ft 486 kts 128°
2026-04-24 20:44 34.72690 23.19093 36962 ft 486 kts 128°
2026-04-24 20:44 34.68845 23.25865 36964 ft 486 kts 128°
2026-04-24 20:45 34.65021 23.32587 36963 ft 486 kts 128°
2026-04-24 20:45 34.61170 23.39343 36962 ft 486 kts 129°
2026-04-24 20:46 34.57313 23.46095 36963 ft 486 kts 129°
2026-04-24 20:46 34.53452 23.52845 36962 ft 486 kts 129°
2026-04-24 20:47 34.49616 23.59538 36963 ft 486 kts 129°
2026-04-24 20:47 34.45746 23.66276 36964 ft 486 kts 129°
2026-04-24 20:48 34.41877 23.72999 36961 ft 486 kts 129°
2026-04-24 20:48 34.38005 23.79716 36963 ft 486 kts 130°
2026-04-24 20:49 34.34122 23.86437 36964 ft 487 kts 130°
2026-04-24 20:49 34.30239 23.93151 36964 ft 487 kts 130°
2026-04-24 20:50 34.26365 23.99835 36963 ft 487 kts 130°
2026-04-24 20:50 34.22472 24.06541 36961 ft 487 kts 130°
2026-04-24 20:51 34.18576 24.13240 36963 ft 486 kts 130°
2026-04-24 20:51 34.14673 24.19929 36965 ft 486 kts 130°
2026-04-24 20:52 34.10794 24.26570 36966 ft 486 kts 130°
2026-04-24 20:52 34.06897 24.33239 36964 ft 486 kts 130°
2026-04-24 20:53 34.02988 24.39909 36965 ft 487 kts 130°
2026-04-24 20:53 33.98816 24.46277 36966 ft 480 kts 139°
2026-04-24 20:54 33.93952 24.51633 36973 ft 475 kts 144°
2026-04-24 20:54 33.88970 24.56905 36962 ft 476 kts 144°
2026-04-24 20:55 33.83995 24.62206 36965 ft 478 kts 144°
2026-04-24 20:55 33.79033 24.67518 36964 ft 478 kts 144°
2026-04-24 20:56 33.74053 24.72852 36961 ft 478 kts 144°
2026-04-24 20:56 33.69110 24.78137 36962 ft 479 kts 144°
2026-04-24 20:57 33.64114 24.83469 36954 ft 479 kts 144°
2026-04-24 20:57 33.59134 24.88773 36954 ft 478 kts 144°
2026-04-24 20:58 33.54145 24.94078 36954 ft 479 kts 144°
2026-04-24 20:58 33.49181 24.99351 36953 ft 479 kts 144°
2026-04-24 20:59 33.44190 25.04644 36954 ft 478 kts 144°
2026-04-24 20:59 33.39205 25.09919 36954 ft 478 kts 144°
2026-04-24 21:00 33.34220 25.15186 36953 ft 478 kts 144°
2026-04-24 21:00 33.29254 25.20426 36953 ft 478 kts 144°
2026-04-24 21:01 33.24264 25.25684 36943 ft 478 kts 145°
2026-04-24 21:01 33.19272 25.30934 36933 ft 478 kts 145°
2026-04-24 21:02 33.14272 25.36183 36929 ft 479 kts 145°
2026-04-24 21:02 33.09270 25.41425 36944 ft 482 kts 145°
2026-04-24 21:03 33.04216 25.46715 36943 ft 484 kts 145°
2026-04-24 21:03 32.99136 25.52023 36939 ft 486 kts 145°
2026-04-24 21:04 32.94037 25.57346 36932 ft 487 kts 145°
2026-04-24 21:04 32.88927 25.62672 36929 ft 487 kts 145°
2026-04-24 21:05 32.83854 25.67948 36910 ft 486 kts 145°
2026-04-24 21:05 32.79613 25.72355 36931 ft 485 kts 145°
2026-04-24 21:06 32.74520 25.77637 36922 ft 484 kts 145°
2026-04-24 21:06 32.69441 25.82897 36909 ft 483 kts 145°
2026-04-24 21:07 32.64403 25.88106 36910 ft 482 kts 145°
2026-04-24 21:07 32.59332 25.93338 36908 ft 482 kts 145°
2026-04-24 21:08 32.54276 25.98550 36922 ft 481 kts 145°
2026-04-24 21:08 32.49251 26.03721 36902 ft 480 kts 145°
2026-04-24 21:09 32.44200 26.08910 36909 ft 480 kts 145°
2026-04-24 21:09 32.39137 26.14105 36899 ft 480 kts 145°
2026-04-24 21:10 32.34088 26.19278 36905 ft 480 kts 145°
2026-04-24 21:10 32.29071 26.24408 36908 ft 480 kts 145°
2026-04-24 21:11 32.24009 26.29577 36897 ft 480 kts 146°
2026-04-24 21:11 32.18943 26.34742 36896 ft 480 kts 146°
2026-04-24 21:12 32.13879 26.39898 36903 ft 480 kts 146°
2026-04-24 21:12 32.08842 26.45019 36904 ft 480 kts 146°
2026-04-24 21:13 32.03776 26.50161 36893 ft 480 kts 146°
2026-04-24 21:13 31.98705 26.55301 36902 ft 480 kts 146°
2026-04-24 21:14 31.93629 26.60436 36889 ft 480 kts 146°
2026-04-24 21:14 31.88585 26.65531 36887 ft 481 kts 146°
2026-04-24 21:15 31.83505 26.70658 36890 ft 481 kts 146°
2026-04-24 21:15 31.78417 26.75785 36885 ft 481 kts 146°
2026-04-24 21:16 31.73318 26.80914 36895 ft 482 kts 146°
2026-04-24 21:16 31.68213 26.86040 36893 ft 482 kts 146°
2026-04-24 21:17 31.63139 26.91129 36884 ft 483 kts 146°
2026-04-24 21:17 31.58024 26.96252 36893 ft 483 kts 146°
2026-04-24 21:18 31.52905 27.01369 36887 ft 483 kts 146°
2026-04-24 21:18 31.47783 27.06485 36891 ft 483 kts 146°
2026-04-24 21:19 31.42699 27.11554 36894 ft 483 kts 146°
2026-04-24 21:19 31.37576 27.16656 36893 ft 482 kts 146°
2026-04-24 21:20 31.30378 27.24918 36889 ft 492 kts 133°
2026-04-24 21:21 31.26489 27.31568 36895 ft 496 kts 129°
2026-04-24 21:21 31.22684 27.38282 36889 ft 495 kts 129°
2026-04-24 21:22 31.18826 27.44965 36884 ft 495 kts 129°
2026-04-24 21:22 31.14978 27.51583 36876 ft 495 kts 129°
2026-04-24 21:23 31.11091 27.58220 36877 ft 495 kts 130°
2026-04-24 21:23 31.07140 27.64829 36878 ft 495 kts 130°
2026-04-24 21:24 31.03190 27.71410 36878 ft 495 kts 130°
2026-04-24 21:24 30.99239 27.78002 36873 ft 496 kts 130°
2026-04-24 21:25 30.95286 27.84597 36869 ft 496 kts 130°
2026-04-24 21:25 30.91330 27.91188 36869 ft 496 kts 130°
2026-04-24 21:26 30.87391 27.97738 36865 ft 497 kts 130°
2026-04-24 21:26 30.83419 28.04333 36862 ft 497 kts 130°
2026-04-24 21:27 30.79442 28.10924 36861 ft 497 kts 130°
2026-04-24 21:27 30.75489 28.17465 36862 ft 496 kts 130°
2026-04-24 21:28 30.71513 28.24036 36859 ft 496 kts 130°
2026-04-24 21:28 30.67533 28.30597 36861 ft 496 kts 130°
2026-04-24 21:29 30.63550 28.37153 36862 ft 496 kts 130°
2026-04-24 21:29 30.59563 28.43707 36860 ft 496 kts 130°
2026-04-24 21:30 30.55580 28.50243 36862 ft 496 kts 130°
2026-04-24 21:30 30.51611 28.56746 36861 ft 496 kts 130°
2026-04-24 21:31 30.47616 28.63277 36861 ft 496 kts 130°
2026-04-24 21:31 30.43618 28.69808 36865 ft 496 kts 130°
2026-04-24 21:32 30.39616 28.76333 36860 ft 496 kts 130°
2026-04-24 21:32 30.35610 28.82853 36865 ft 496 kts 130°
2026-04-24 21:33 30.31631 28.89320 36856 ft 496 kts 130°
2026-04-24 21:33 30.27625 28.95820 36861 ft 495 kts 130°
2026-04-24 21:34 30.23622 29.02307 36860 ft 495 kts 130°
2026-04-24 21:34 30.19620 29.08781 36861 ft 494 kts 130°
2026-04-24 21:35 30.15641 29.15199 36859 ft 493 kts 130°
2026-04-24 21:35 30.11644 29.21646 36862 ft 493 kts 130°
2026-04-24 21:36 30.07716 29.28139 36863 ft 493 kts 129°
2026-04-24 21:36 30.03810 29.34648 36857 ft 493 kts 129°
2026-04-24 21:37 29.99889 29.41156 36862 ft 493 kts 129°
2026-04-24 21:37 29.95982 29.47609 36856 ft 494 kts 130°
2026-04-24 21:38 29.92035 29.54115 36866 ft 495 kts 130°
2026-04-24 21:38 29.88082 29.60624 36865 ft 496 kts 130°
2026-04-24 21:39 29.84111 29.67149 36862 ft 497 kts 130°
2026-04-24 21:39 29.80168 29.73621 36858 ft 497 kts 130°
2026-04-24 21:40 29.76192 29.80136 36863 ft 496 kts 130°
2026-04-24 21:40 29.72219 29.86635 36859 ft 495 kts 130°
2026-04-24 21:41 29.68276 29.93079 36862 ft 494 kts 130°
2026-04-24 21:41 29.64309 29.99548 36859 ft 494 kts 130°
2026-04-24 21:42 29.60339 30.06012 36860 ft 494 kts 130°
2026-04-24 21:42 29.56372 30.12459 36862 ft 494 kts 130°
2026-04-24 21:43 29.52404 30.18900 36860 ft 494 kts 130°
2026-04-24 21:43 29.48426 30.25349 36860 ft 495 kts 130°
2026-04-24 21:44 29.44466 30.31759 36865 ft 495 kts 130°
2026-04-24 21:44 29.40462 30.38203 36859 ft 495 kts 132°
2026-04-24 21:45 29.35925 30.44084 36867 ft 490 kts 140°
2026-04-24 21:45 29.31151 30.49675 36860 ft 491 kts 140°
2026-04-24 21:46 29.26371 30.55298 36863 ft 493 kts 140°
2026-04-24 21:46 29.21624 30.60926 36864 ft 494 kts 139°
2026-04-24 21:47 29.16839 30.66611 36859 ft 495 kts 139°
2026-04-24 21:47 29.12051 30.72292 36868 ft 496 kts 140°
2026-04-24 21:48 29.07285 30.77933 36871 ft 496 kts 140°
2026-04-24 21:48 29.02477 30.83615 36871 ft 497 kts 140°
2026-04-24 21:49 28.97658 30.89304 36869 ft 497 kts 140°
2026-04-24 21:49 28.92870 30.94948 36870 ft 497 kts 140°
2026-04-24 21:50 28.88044 31.00627 36873 ft 498 kts 140°
2026-04-24 21:50 28.83217 31.06301 36868 ft 498 kts 140°
2026-04-24 21:51 28.79191 31.11028 36859 ft 499 kts 140°
2026-04-24 21:51 28.74346 31.16709 36860 ft 499 kts 140°
2026-04-24 21:52 28.69524 31.22357 36860 ft 500 kts 140°
2026-04-24 21:52 28.64797 31.28208 36861 ft 502 kts 137°
2026-04-24 21:53 28.60147 31.34157 36864 ft 502 kts 137°
2026-04-24 21:53 28.55514 31.40045 36859 ft 502 kts 138°
2026-04-24 21:54 28.50827 31.45946 36873 ft 502 kts 138°
2026-04-24 21:54 28.46121 31.51848 36869 ft 503 kts 138°
2026-04-24 21:55 28.41410 31.57744 36872 ft 504 kts 138°
2026-04-24 21:55 28.36708 31.63627 36868 ft 505 kts 139°
2026-04-24 21:56 28.31974 31.69542 36860 ft 506 kts 139°
2026-04-24 21:56 28.27232 31.75460 36860 ft 507 kts 139°
2026-04-24 21:57 28.22483 31.81377 36865 ft 507 kts 139°
2026-04-24 21:57 28.17716 31.87306 36855 ft 509 kts 139°
2026-04-24 21:58 28.12973 31.93205 36852 ft 509 kts 139°
2026-04-24 21:58 28.08193 31.99135 36854 ft 509 kts 139°
2026-04-24 21:59 28.03555 32.05241 36848 ft 515 kts 132°
2026-04-24 21:59 27.99786 32.12209 36849 ft 521 kts 123°
2026-04-24 22:00 27.96378 32.19445 36842 ft 521 kts 123°
2026-04-24 22:00 27.92947 32.26674 36836 ft 520 kts 123°
2026-04-24 22:01 27.89485 32.33865 36831 ft 520 kts 124°
2026-04-24 22:01 27.86034 32.40987 36827 ft 520 kts 124°
2026-04-24 22:02 27.82554 32.48152 36818 ft 519 kts 124°
2026-04-24 22:02 27.79070 32.55324 36804 ft 520 kts 124°
2026-04-24 22:03 27.75584 32.62492 36793 ft 520 kts 124°
2026-04-24 22:03 27.72117 32.69607 36797 ft 520 kts 124°
2026-04-24 22:04 27.68622 32.76770 36797 ft 521 kts 124°
2026-04-24 22:04 27.65105 32.83965 36796 ft 522 kts 124°
2026-04-24 22:05 27.61613 32.91092 36795 ft 522 kts 124°
2026-04-24 22:05 27.58090 32.98266 36796 ft 523 kts 125°
2026-04-24 22:06 27.54564 33.05447 36801 ft 523 kts 125°
2026-04-24 22:06 27.51030 33.12631 36798 ft 523 kts 125°
2026-04-24 22:07 27.47496 33.19796 36794 ft 523 kts 125°
2026-04-24 22:07 27.43966 33.26943 36794 ft 522 kts 125°
2026-04-24 22:08 27.40451 33.34051 36794 ft 522 kts 125°
2026-04-24 22:08 27.36908 33.41196 36793 ft 521 kts 125°
2026-04-24 22:09 27.33370 33.48326 36798 ft 522 kts 125°
2026-04-24 22:09 27.29852 33.55420 36797 ft 522 kts 125°
2026-04-24 22:10 27.26304 33.62547 36804 ft 521 kts 125°
2026-04-24 22:10 27.22760 33.69663 36803 ft 521 kts 125°
2026-04-24 22:11 27.19212 33.76775 36807 ft 521 kts 126°
2026-04-24 22:11 27.16052 33.84167 36808 ft 528 kts 117°
2026-04-24 22:12 27.13392 33.91813 36806 ft 529 kts 116°
2026-04-24 22:12 27.10705 33.99515 36806 ft 529 kts 117°
2026-04-24 22:13 27.07970 34.07194 36802 ft 529 kts 117°
2026-04-24 22:13 27.05218 34.14863 36794 ft 530 kts 117°
2026-04-24 22:14 27.02465 34.22541 36795 ft 530 kts 117°
2026-04-24 22:14 26.99726 34.30174 36793 ft 530 kts 117°
2026-04-24 22:15 26.96968 34.37867 36798 ft 531 kts 117°
2026-04-24 22:15 26.94205 34.45561 36804 ft 531 kts 118°
2026-04-24 22:16 26.91457 34.53199 36804 ft 531 kts 118°
2026-04-24 22:16 26.88687 34.60880 36808 ft 532 kts 118°
2026-04-24 22:17 26.85908 34.68573 36802 ft 532 kts 118°
2026-04-24 22:17 26.83126 34.76254 36806 ft 531 kts 118°
2026-04-24 22:18 26.80352 34.83899 36805 ft 532 kts 118°
2026-04-24 22:18 26.77566 34.91566 36806 ft 532 kts 118°
2026-04-24 22:19 26.74764 34.99245 36805 ft 532 kts 118°
2026-04-24 22:19 26.71974 35.06855 36807 ft 531 kts 118°
2026-04-24 22:20 26.69160 35.14516 36804 ft 531 kts 118°
2026-04-24 22:20 26.66349 35.22161 36796 ft 531 kts 118°
2026-04-24 22:21 26.63531 35.29811 36797 ft 531 kts 118°
2026-04-24 22:21 26.60733 35.37391 36794 ft 530 kts 118°
2026-04-24 22:22 26.57916 35.45015 36797 ft 531 kts 118°
2026-04-24 22:22 26.55074 35.52626 36797 ft 530 kts 119°
2026-04-24 22:23 26.52165 35.60216 36788 ft 530 kts 120°
2026-04-24 22:23 26.49268 35.67740 36786 ft 531 kts 120°
2026-04-24 22:24 26.46355 35.75321 36786 ft 531 kts 120°
2026-04-24 22:24 26.43441 35.82906 36788 ft 532 kts 120°
2026-04-24 22:25 26.40516 35.90511 36786 ft 532 kts 120°
2026-04-24 22:25 26.37608 35.98055 36787 ft 532 kts 120°
2026-04-24 22:26 26.34671 36.05653 36781 ft 533 kts 120°
2026-04-24 22:26 26.31731 36.13250 36776 ft 532 kts 120°
2026-04-24 22:27 26.28811 36.20780 36779 ft 532 kts 120°
2026-04-24 22:27 26.25870 36.28350 36776 ft 531 kts 120°
2026-04-24 22:28 26.22928 36.35910 36777 ft 531 kts 120°
2026-04-24 22:28 26.20005 36.43407 36777 ft 530 kts 120°
2026-04-24 22:29 26.15222 36.54459 36779 ft 523 kts 126°
2026-04-24 22:29 26.11678 36.61547 36777 ft 523 kts 127°
2026-04-24 22:30 26.08164 36.68593 36779 ft 523 kts 126°
2026-04-24 22:30 26.04656 36.75691 36776 ft 523 kts 126°
2026-04-24 22:31 26.01155 36.82788 36776 ft 523 kts 126°
2026-04-24 22:31 25.97650 36.89880 36770 ft 523 kts 127°
2026-04-24 22:32 25.94153 36.96940 36789 ft 524 kts 127°
2026-04-24 22:32 25.90627 37.04044 36792 ft 525 kts 127°
2026-04-24 22:33 25.87097 37.11148 36789 ft 526 kts 127°
2026-04-24 22:33 25.83578 37.18221 36796 ft 526 kts 127°
2026-04-24 22:34 25.80035 37.25331 36797 ft 526 kts 127°
2026-04-24 22:34 25.76488 37.32450 36793 ft 525 kts 127°
2026-04-24 22:35 25.72953 37.39546 36794 ft 524 kts 127°
2026-04-24 22:35 25.69443 37.46584 36804 ft 523 kts 127°
2026-04-24 22:36 25.65912 37.53648 36801 ft 522 kts 127°
2026-04-24 22:36 25.62406 37.60650 36830 ft 522 kts 127°
2026-04-24 22:37 25.58873 37.67695 36813 ft 522 kts 127°
2026-04-24 22:37 25.55937 37.73546 36800 ft 522 kts 127°
2026-04-24 22:38 25.51834 37.81706 36802 ft 521 kts 127°
2026-04-24 22:38 25.48880 37.87573 36797 ft 520 kts 127°
2026-04-24 22:39 25.45374 37.94524 36801 ft 520 kts 127°
2026-04-24 22:39 25.41844 38.01511 36796 ft 520 kts 127°
2026-04-24 22:40 25.38309 38.08498 36794 ft 520 kts 127°
2026-04-24 22:40 25.34776 38.15473 36814 ft 519 kts 127°
2026-04-24 22:41 25.31244 38.22437 36828 ft 519 kts 127°
2026-04-24 22:41 25.27731 38.29350 36820 ft 519 kts 127°
2026-04-24 22:42 25.24191 38.36308 36833 ft 519 kts 128°
2026-04-24 22:42 25.20645 38.43266 36811 ft 519 kts 128°
2026-04-24 22:43 25.17122 38.50171 36834 ft 519 kts 128°
2026-04-24 22:43 25.13566 38.57130 36820 ft 520 kts 127°
2026-04-24 22:44 25.10010 38.64080 36816 ft 520 kts 127°
2026-04-24 22:44 25.06455 38.71026 36834 ft 519 kts 128°
2026-04-24 22:45 25.02898 38.77961 36830 ft 519 kts 127°
2026-04-24 22:45 24.99342 38.84888 36845 ft 519 kts 128°
2026-04-24 22:46 24.95781 38.91810 36849 ft 519 kts 128°
2026-04-24 22:46 24.94003 38.95244 36965 ft 523 kts 128°
2026-04-24 22:46 24.92196 38.98722 37261 ft 523 kts 128°
2026-04-24 22:47 24.90387 39.02202 37562 ft 523 kts 128°
2026-04-24 22:47 24.88572 39.05692 37849 ft 524 kts 128°
2026-04-24 22:47 24.86756 39.09186 38119 ft 525 kts 128°
2026-04-24 22:47 24.84936 39.12687 38369 ft 526 kts 128°
2026-04-24 22:48 24.83113 39.16191 38563 ft 529 kts 128°
2026-04-24 22:48 24.81279 39.19712 38784 ft 530 kts 128°
2026-04-24 22:48 24.77593 39.26774 38897 ft 537 kts 128°
2026-04-24 22:49 24.73878 39.33898 38905 ft 534 kts 128°
2026-04-24 22:49 24.70196 39.40957 38932 ft 529 kts 128°
2026-04-24 22:50 24.66523 39.47975 38931 ft 528 kts 128°
2026-04-24 22:50 24.62859 39.54963 38936 ft 527 kts 128°
2026-04-24 22:51 24.59224 39.61894 38944 ft 526 kts 128°
2026-04-24 22:51 24.55881 39.69100 38933 ft 538 kts 116°
2026-04-24 22:52 24.53919 39.77119 38937 ft 550 kts 102°
2026-04-24 22:52 24.53119 39.85523 38940 ft 555 kts 99°
2026-04-24 22:53 24.52419 39.93987 38943 ft 556 kts 99°
2026-04-24 22:53 24.51645 40.02440 38939 ft 557 kts 100°
2026-04-24 22:54 24.50823 40.10846 38933 ft 556 kts 100°
2026-04-24 22:54 24.49989 40.19290 38935 ft 555 kts 100°
2026-04-24 22:55 24.49159 40.27706 38931 ft 553 kts 100°
2026-04-24 22:55 24.48331 40.36091 38930 ft 551 kts 100°
2026-04-24 22:56 24.47505 40.44392 38935 ft 549 kts 100°
2026-04-24 22:56 24.46672 40.52729 38934 ft 548 kts 100°
2026-04-24 22:57 24.45835 40.61054 38937 ft 547 kts 100°
2026-04-24 22:57 24.45005 40.69309 38936 ft 546 kts 100°
2026-04-24 22:58 24.44173 40.77595 38935 ft 546 kts 100°
2026-04-24 22:58 24.43336 40.85878 38935 ft 545 kts 100°
2026-04-24 22:59 24.42495 40.94145 38940 ft 545 kts 100°
2026-04-24 23:00 24.41231 41.06502 38936 ft 544 kts 100°
2026-04-24 23:00 24.40370 41.14757 38986 ft 542 kts 100°
2026-04-24 23:01 24.39501 41.22971 38989 ft 542 kts 100°
2026-04-24 23:01 24.38633 41.31134 38995 ft 541 kts 100°
2026-04-24 23:02 24.37760 41.39331 39004 ft 540 kts 100°
2026-04-24 23:02 24.36883 41.47524 39003 ft 540 kts 100°
2026-04-24 23:03 24.36004 41.55696 39004 ft 539 kts 100°
2026-04-24 23:03 24.35122 41.63859 39009 ft 538 kts 100°
2026-04-24 23:04 24.34240 41.71964 39008 ft 538 kts 100°
2026-04-24 23:04 24.33342 41.80124 39016 ft 537 kts 101°
2026-04-24 23:05 24.31740 41.88077 39022 ft 531 kts 110°
2026-04-24 23:05 24.29646 41.95788 39013 ft 531 kts 111°
2026-04-24 23:06 24.27537 42.03555 39017 ft 532 kts 110°
2026-04-24 23:06 24.25465 42.11343 39017 ft 532 kts 110°
2026-04-24 23:07 24.23417 42.19103 39033 ft 532 kts 110°
2026-04-24 23:07 24.21353 42.26904 39029 ft 533 kts 110°
2026-04-24 23:08 24.19279 42.34703 39027 ft 533 kts 110°
2026-04-24 23:08 24.17202 42.42498 39031 ft 532 kts 110°
2026-04-24 23:09 24.15124 42.50280 39034 ft 531 kts 110°
2026-04-24 23:09 24.13057 42.58003 39041 ft 531 kts 110°
2026-04-24 23:10 24.10980 42.65751 39033 ft 530 kts 110°
2026-04-24 23:10 24.08898 42.73496 39028 ft 530 kts 110°
2026-04-24 23:11 24.06814 42.81237 39026 ft 529 kts 110°
2026-04-24 23:11 24.04745 42.88904 39028 ft 528 kts 110°
2026-04-24 23:12 24.02660 42.96614 39039 ft 527 kts 110°
2026-04-24 23:12 24.00577 43.04313 39037 ft 526 kts 110°
2026-04-24 23:13 23.98500 43.11976 39028 ft 525 kts 110°
2026-04-24 23:13 23.96416 43.19639 39040 ft 526 kts 110°
2026-04-24 23:14 23.94336 43.27273 39041 ft 527 kts 110°
2026-04-24 23:14 23.92243 43.34960 39046 ft 527 kts 109°
2026-04-24 23:15 23.90140 43.42652 39036 ft 528 kts 110°
2026-04-24 23:15 23.88041 43.50295 39037 ft 527 kts 110°
2026-04-24 23:16 23.85933 43.57979 39033 ft 526 kts 110°
2026-04-24 23:16 23.83826 43.65643 39036 ft 525 kts 110°
2026-04-24 23:17 23.81737 43.73216 39044 ft 523 kts 110°
2026-04-24 23:17 23.79635 43.80830 39045 ft 523 kts 110°
2026-04-24 23:18 23.77660 43.88471 39044 ft 524 kts 104°
2026-04-24 23:18 23.76721 43.96375 39051 ft 525 kts 96°
2026-04-24 23:19 23.76205 44.04300 39046 ft 526 kts 96°
2026-04-24 23:19 23.75660 44.12266 39045 ft 525 kts 96°
2026-04-24 23:20 23.75070 44.20219 39047 ft 525 kts 96°
2026-04-24 23:20 23.74461 44.28185 39047 ft 526 kts 96°
2026-04-24 23:21 23.73854 44.36097 39042 ft 526 kts 96°
2026-04-24 23:21 23.73240 44.44082 39035 ft 527 kts 96°
2026-04-24 23:22 23.72622 44.52070 39037 ft 528 kts 96°
2026-04-24 23:22 23.72004 44.60015 39042 ft 528 kts 96°
2026-04-24 23:23 23.71376 44.68025 39034 ft 529 kts 96°
2026-04-24 23:23 23.70851 44.74679 39039 ft 529 kts 96°
2026-04-24 23:24 23.70216 44.82684 39037 ft 529 kts 96°
2026-04-24 23:24 23.69579 44.90659 39036 ft 529 kts 96°
2026-04-24 23:25 23.68931 44.98676 39040 ft 530 kts 96°
2026-04-24 23:25 23.68279 45.06692 39034 ft 530 kts 96°
2026-04-24 23:26 23.67625 45.14725 39023 ft 531 kts 96°
2026-04-24 23:26 23.66964 45.22747 39028 ft 531 kts 96°
2026-04-24 23:27 23.66305 45.30729 39027 ft 531 kts 96°
2026-04-24 23:27 23.65641 45.38761 39013 ft 531 kts 96°
2026-04-24 23:28 23.64972 45.46789 39029 ft 530 kts 96°
2026-04-24 23:28 23.64304 45.54760 39006 ft 530 kts 96°
2026-04-24 23:29 23.63629 45.62758 39024 ft 530 kts 96°
2026-04-24 23:29 23.62950 45.70765 39018 ft 529 kts 96°
2026-04-24 23:30 23.62269 45.78756 39025 ft 529 kts 96°
2026-04-24 23:30 23.61584 45.86745 39023 ft 528 kts 96°
2026-04-24 23:31 23.60899 45.94679 39017 ft 528 kts 96°
2026-04-24 23:31 23.60206 46.02672 39018 ft 528 kts 96°
2026-04-24 23:32 23.59514 46.10609 39020 ft 528 kts 96°
2026-04-24 23:32 23.58812 46.18590 39015 ft 529 kts 96°
2026-04-24 23:33 23.58109 46.26583 39004 ft 529 kts 96°
2026-04-24 23:33 23.57398 46.34578 38996 ft 529 kts 96°
2026-04-24 23:34 23.56682 46.42573 39002 ft 529 kts 96°
2026-04-24 23:34 23.55966 46.50564 38990 ft 530 kts 96°
2026-04-24 23:35 23.55243 46.58516 38991 ft 530 kts 96°
2026-04-24 23:35 23.54503 46.66527 38985 ft 531 kts 96°
2026-04-24 23:36 23.53758 46.74546 38994 ft 531 kts 96°
2026-04-24 23:36 23.53010 46.82566 38998 ft 531 kts 96°
2026-04-24 23:37 23.52264 46.90540 39004 ft 532 kts 96°
2026-04-24 23:37 23.51128 47.02590 39005 ft 533 kts 96°
2026-04-24 23:38 23.50362 47.10648 39005 ft 533 kts 96°
2026-04-24 23:38 23.49600 47.18636 39004 ft 533 kts 96°
2026-04-24 23:39 23.48828 47.26681 39001 ft 534 kts 96°
2026-04-24 23:39 23.48050 47.34724 39002 ft 533 kts 96°
2026-04-24 23:40 23.47271 47.42766 38993 ft 533 kts 96°
2026-04-24 23:40 23.46488 47.50803 39001 ft 533 kts 96°
2026-04-24 23:41 23.45704 47.58825 39001 ft 532 kts 96°
2026-04-24 23:41 23.44928 47.66794 38995 ft 532 kts 96°
2026-04-24 23:42 23.44142 47.74813 38989 ft 532 kts 96°
2026-04-24 23:42 23.43351 47.82844 38994 ft 532 kts 96°
2026-04-24 23:43 23.42556 47.90862 38990 ft 532 kts 97°
2026-04-24 23:43 23.41763 47.98823 38993 ft 532 kts 97°
2026-04-24 23:44 23.40959 48.06848 38992 ft 532 kts 96°
2026-04-24 23:44 23.40153 48.14860 38984 ft 532 kts 97°
2026-04-24 23:45 23.39342 48.22877 38981 ft 532 kts 97°
2026-04-24 23:45 23.38528 48.30887 38983 ft 532 kts 97°
2026-04-24 23:46 23.37934 48.38868 38983 ft 532 kts 92°
2026-04-24 23:46 23.37642 48.46915 38995 ft 532 kts 92°
2026-04-24 23:47 23.37364 48.54963 39011 ft 531 kts 92°
2026-04-24 23:47 23.37047 48.63015 39003 ft 532 kts 92°
2026-04-24 23:48 23.36713 48.71018 39003 ft 532 kts 92°
2026-04-24 23:48 23.36374 48.79069 39001 ft 532 kts 92°
2026-04-24 23:49 23.36034 48.87120 39002 ft 532 kts 92°
2026-04-24 23:49 23.35693 48.95125 39004 ft 532 kts 92°
2026-04-24 23:50 23.35345 49.03176 39001 ft 532 kts 92°
2026-04-24 23:50 23.34978 49.11231 38993 ft 531 kts 93°
2026-04-24 23:51 23.34562 49.19221 38991 ft 531 kts 93°
2026-04-24 23:51 23.34131 49.27250 38990 ft 531 kts 93°
2026-04-24 23:52 23.33706 49.35266 38989 ft 530 kts 93°
2026-04-24 23:52 23.33281 49.43278 38987 ft 530 kts 93°
2026-04-24 23:53 23.32852 49.51292 38990 ft 530 kts 93°
2026-04-24 23:53 23.32419 49.59306 38959 ft 530 kts 93°
2026-04-24 23:54 23.31982 49.67316 38955 ft 530 kts 93°
2026-04-24 23:54 23.31544 49.75283 38952 ft 530 kts 93°
2026-04-24 23:55 23.31099 49.83281 38947 ft 529 kts 93°
2026-04-24 23:55 23.30650 49.91274 38943 ft 529 kts 93°
2026-04-24 23:56 23.30198 49.99266 38944 ft 528 kts 93°
2026-04-24 23:56 23.29745 50.07198 38947 ft 528 kts 93°
2026-04-24 23:57 23.29285 50.15163 38946 ft 527 kts 93°
2026-04-24 23:57 23.28823 50.23137 38943 ft 527 kts 93°
2026-04-24 23:58 23.28355 50.31115 38941 ft 528 kts 93°
2026-04-24 23:58 23.27886 50.39036 38945 ft 528 kts 93°
2026-04-24 23:59 23.27410 50.47021 38945 ft 528 kts 93°
2026-04-24 23:59 23.26929 50.55007 38949 ft 529 kts 93°
2026-04-25 00:00 23.26444 50.62999 38947 ft 529 kts 93°
2026-04-25 00:00 23.25958 50.70939 38947 ft 530 kts 93°
2026-04-25 00:01 23.25464 50.78952 38944 ft 530 kts 93°
2026-04-25 00:01 23.24965 50.86960 38947 ft 530 kts 93°
2026-04-25 00:02 23.24466 50.94912 38955 ft 528 kts 93°
2026-04-25 00:02 23.23963 51.02878 38939 ft 527 kts 93°
2026-04-25 00:03 23.23457 51.10807 38942 ft 524 kts 93°
2026-04-25 00:03 23.22950 51.18699 38939 ft 522 kts 93°
2026-04-25 00:04 23.22441 51.26572 38944 ft 520 kts 93°
2026-04-25 00:04 23.21932 51.34370 38941 ft 519 kts 93°
2026-04-25 00:05 23.21416 51.42211 38929 ft 519 kts 93°
2026-04-25 00:05 23.20895 51.50053 38922 ft 519 kts 93°
2026-04-25 00:06 23.20373 51.57895 38926 ft 519 kts 93°
2026-04-25 00:06 23.19850 51.65687 38918 ft 520 kts 93°
2026-04-25 00:07 23.19317 51.73544 38920 ft 520 kts 93°
2026-04-25 00:07 23.18781 51.81399 38921 ft 520 kts 93°
2026-04-25 00:08 23.18244 51.89197 38916 ft 520 kts 93°
2026-04-25 00:08 23.17702 51.97043 38915 ft 520 kts 93°
2026-04-25 00:09 23.17154 52.04899 38921 ft 520 kts 93°
2026-04-25 00:09 23.16696 52.11417 38916 ft 519 kts 93°
2026-04-25 00:10 23.16144 52.19232 38910 ft 518 kts 93°
2026-04-25 00:10 23.15589 52.27035 38916 ft 517 kts 93°
2026-04-25 00:11 23.15043 52.34832 38918 ft 517 kts 91°
2026-04-25 00:11 23.15506 52.42540 38913 ft 512 kts 77°
2026-04-25 00:12 23.17344 52.49983 38911 ft 508 kts 69°
2026-04-25 00:12 23.18957 52.57446 38899 ft 513 kts 79°
2026-04-25 00:13 23.19894 52.65157 38900 ft 514 kts 81°
2026-04-25 00:13 23.20767 52.72882 38896 ft 514 kts 80°
2026-04-25 00:14 23.21689 52.80595 38897 ft 514 kts 80°
2026-04-25 00:14 23.22639 52.88268 38899 ft 514 kts 80°
2026-04-25 00:15 23.23600 52.95991 38895 ft 514 kts 80°
2026-04-25 00:15 23.24555 53.03711 38899 ft 514 kts 80°
2026-04-25 00:16 23.25501 53.11424 38898 ft 514 kts 80°
2026-04-25 00:16 23.26436 53.19088 38896 ft 514 kts 80°
2026-04-25 00:17 23.27372 53.26785 38902 ft 513 kts 80°
2026-04-25 00:17 23.28305 53.34486 38896 ft 513 kts 80°
2026-04-25 00:18 23.29234 53.42182 38898 ft 512 kts 80°
2026-04-25 00:18 23.30156 53.49867 38898 ft 512 kts 80°
2026-04-25 00:19 23.31077 53.57564 38890 ft 512 kts 80°
2026-04-25 00:19 23.31988 53.65209 38888 ft 512 kts 80°
2026-04-25 00:20 23.32900 53.72898 38890 ft 512 kts 80°
2026-04-25 00:20 23.33808 53.80591 38888 ft 512 kts 80°
2026-04-25 00:21 23.34714 53.88284 38889 ft 512 kts 80°
2026-04-25 00:21 23.35608 53.95923 38890 ft 512 kts 80°
2026-04-25 00:22 23.36506 54.03631 38890 ft 512 kts 80°
2026-04-25 00:22 23.37400 54.11330 38889 ft 512 kts 80°
2026-04-25 00:23 23.38285 54.18984 38889 ft 512 kts 80°
2026-04-25 00:23 23.39170 54.26676 38889 ft 511 kts 80°
2026-04-25 00:24 23.40050 54.34359 38888 ft 511 kts 80°
2026-04-25 00:24 23.40926 54.42042 38889 ft 511 kts 80°
2026-04-25 00:25 23.41795 54.49680 38889 ft 510 kts 81°
2026-04-25 00:25 23.42663 54.57360 38889 ft 510 kts 80°
2026-04-25 00:26 23.43526 54.65035 38889 ft 510 kts 80°
2026-04-25 00:26 23.44386 54.72704 38899 ft 509 kts 80°
2026-04-25 00:27 23.45235 54.80317 38908 ft 509 kts 80°
2026-04-25 00:27 23.46086 54.87971 38910 ft 509 kts 80°
2026-04-25 00:28 23.46933 54.95637 38911 ft 509 kts 80°
2026-04-25 00:28 23.47775 55.03298 38913 ft 509 kts 80°
2026-04-25 00:29 23.48614 55.10953 38915 ft 508 kts 81°
2026-04-25 00:29 23.49444 55.18565 38915 ft 508 kts 80°
2026-04-25 00:30 23.50275 55.26209 38916 ft 508 kts 81°
2026-04-25 00:30 23.51814 55.33622 38912 ft 494 kts 58°
2026-04-25 00:31 23.53743 55.36645 38824 ft 480 kts 41°
2026-04-25 00:31 23.56202 55.38990 38518 ft 472 kts 30°
2026-04-25 00:31 23.59038 55.40785 38071 ft 467 kts 18°
2026-04-25 00:31 23.62109 55.41830 37572 ft 462 kts
2026-04-25 00:32 23.65245 55.42685 37115 ft 464 kts
2026-04-25 00:32 23.68386 55.43547 36675 ft 466 kts 10°
2026-04-25 00:32 23.71534 55.44439 36253 ft 467 kts 11°
2026-04-25 00:32 23.74686 55.45360 35753 ft 470 kts 11°
2026-04-25 00:33 23.77819 55.46292 35105 ft 476 kts 11°
2026-04-25 00:33 23.81079 55.47266 34350 ft 483 kts 11°
2026-04-25 00:33 23.84317 55.48233 33631 ft 489 kts 12°
2026-04-25 00:33 23.87611 55.49216 33012 ft 491 kts 12°
2026-04-25 00:34 23.90908 55.50196 32436 ft 492 kts 12°
2026-04-25 00:34 23.94222 55.51182 31870 ft 492 kts 12°
2026-04-25 00:34 23.97465 55.52243 31398 ft 492 kts 18°
2026-04-25 00:34 24.00594 55.53797 31010 ft 492 kts 26°
2026-04-25 00:35 24.03509 55.55757 30661 ft 490 kts 33°
2026-04-25 00:35 24.06165 55.58091 30270 ft 490 kts 40°
2026-04-25 00:35 24.08670 55.60605 29904 ft 487 kts 41°
2026-04-25 00:35 24.11144 55.63122 29540 ft 484 kts 41°
2026-04-25 00:36 24.13606 55.65620 29171 ft 481 kts 41°
2026-04-25 00:36 24.16069 55.68097 28708 ft 478 kts 41°
2026-04-25 00:36 24.18494 55.70517 28087 ft 474 kts 40°
2026-04-25 00:36 24.20926 55.72932 27463 ft 469 kts 40°
2026-04-25 00:37 24.23343 55.75328 26866 ft 465 kts 40°
2026-04-25 00:37 24.25734 55.77699 26245 ft 461 kts 40°
2026-04-25 00:37 24.28101 55.80049 25624 ft 457 kts 40°
2026-04-25 00:37 24.30420 55.82353 25042 ft 453 kts 40°
2026-04-25 00:38 24.32744 55.84664 24444 ft 450 kts 40°
2026-04-25 00:38 24.35059 55.86967 23841 ft 446 kts 40°
2026-04-25 00:38 24.37353 55.89251 23242 ft 443 kts 40°
2026-04-25 00:38 24.39629 55.91520 22677 ft 439 kts 40°
2026-04-25 00:39 24.41886 55.93775 22081 ft 436 kts 41°
2026-04-25 00:39 24.44094 55.95982 21506 ft 432 kts 41°
2026-04-25 00:39 24.46313 55.98202 20942 ft 429 kts 41°
2026-04-25 00:39 24.48513 56.00404 20359 ft 426 kts 41°
2026-04-25 00:40 24.52633 56.04529 19279 ft 420 kts 41°
2026-04-25 00:40 24.54783 56.06681 18711 ft 416 kts 41°
2026-04-25 00:40 24.56887 56.08785 18163 ft 413 kts 41°
2026-04-25 00:41 24.59109 56.10737 17590 ft 407 kts 31°
2026-04-25 00:41 24.61611 56.12139 17042 ft 402 kts 20°
2026-04-25 00:41 24.64268 56.13031 16476 ft 398 kts 10°
2026-04-25 00:41 24.66993 56.13499 15924 ft 395 kts
2026-04-25 00:42 24.69697 56.13933 15358 ft 388 kts
2026-04-25 00:42 24.72352 56.13804 14682 ft 382 kts 343°
2026-04-25 00:42 24.74674 56.12484 14198 ft 374 kts 320°
2026-04-25 00:42 24.76458 56.10448 13760 ft 367 kts 309°
2026-04-25 00:43 24.78062 56.08277 13203 ft 365 kts 308°
2026-04-25 00:43 24.79635 56.06089 12636 ft 364 kts 308°
2026-04-25 00:43 24.81181 56.03942 12168 ft 361 kts 308°
2026-04-25 00:43 24.82711 56.01829 12066 ft 344 kts 308°
2026-04-25 00:44 24.84140 55.99854 11865 ft 316 kts 308°
2026-04-25 00:44 24.85459 55.98028 11560 ft 296 kts 308°
2026-04-25 00:44 24.86714 55.96288 11047 ft 286 kts 307°
2026-04-25 00:44 24.87938 55.94589 10406 ft 281 kts 308°
2026-04-25 00:45 24.89152 55.92903 9907 ft 279 kts 307°
2026-04-25 00:45 24.90353 55.91234 9600 ft 278 kts 307°
2026-04-25 00:45 24.91557 55.89559 9345 ft 279 kts 307°
2026-04-25 00:45 24.92765 55.87877 9071 ft 281 kts 308°
2026-04-25 00:46 24.93969 55.86202 8793 ft 284 kts 308°
2026-04-25 00:46 24.95202 55.84488 8433 ft 287 kts 308°
2026-04-25 00:46 24.97678 55.81041 7490 ft 282 kts 308°
2026-04-25 00:47 24.98872 55.79379 7014 ft 272 kts 308°
2026-04-25 00:47 25.00028 55.77769 6527 ft 264 kts 308°
2026-04-25 00:47 25.01167 55.76181 6165 ft 265 kts 308°
2026-04-25 00:47 25.02312 55.74583 5796 ft 266 kts 308°
2026-04-25 00:48 25.03464 55.72976 5423 ft 268 kts 308°
2026-04-25 00:48 25.04621 55.71361 5050 ft 269 kts 308°
2026-04-25 00:48 25.05783 55.69739 4693 ft 270 kts 308°
2026-04-25 00:48 25.06951 55.68108 4320 ft 272 kts 308°
2026-04-25 00:49 25.08109 55.66493 3970 ft 272 kts 308°
2026-04-25 00:49 25.09268 55.64873 3807 ft 265 kts 308°
2026-04-25 00:49 25.10384 55.63298 3664 ft 256 kts 305°
2026-04-25 00:49 25.11335 55.61669 3523 ft 249 kts 301°
2026-04-25 00:50 25.12200 55.60052 3386 ft 241 kts 300°
2026-04-25 00:50 25.13041 55.58482 3249 ft 234 kts 301°
2026-04-25 00:50 25.13872 55.56970 3102 ft 227 kts 301°
2026-04-25 00:50 25.14683 55.55509 2960 ft 220 kts 301°
2026-04-25 00:51 25.15469 55.54098 2871 ft 210 kts 301°
2026-04-25 00:51 25.16215 55.52758 2759 ft 202 kts 301°
2026-04-25 00:51 25.16944 55.51448 2517 ft 197 kts 301°
2026-04-25 00:51 25.17646 55.50187 2254 ft 193 kts 301°
2026-04-25 00:52 25.18349 55.48917 1988 ft 196 kts 308°
2026-04-25 00:52 25.19056 55.47641 1739 ft 191 kts 309°
2026-04-25 00:52 25.19731 55.46424 1456 ft 181 kts 311°
2026-04-25 00:52 25.20401 55.45228 1266 ft 181 kts 311°
2026-04-25 00:53 25.21031 55.44084 1018 ft 168 kts 313°
2026-04-25 00:53 25.21638 55.43001 789 ft 163 kts 308°
2026-04-25 00:53 25.22225 55.41943 583 ft 159 kts 303°
2026-04-25 00:53 25.22782 55.40934 371 ft 150 kts 302°
2026-04-25 00:54 25.23329 55.39953 165 ft 150 kts 302°
2026-04-25 00:54 25.23866 55.38989 30 ft 143 kts 301°
2026-04-25 00:54 25.24316 55.38177 32 ft 102 kts 301°
2026-04-25 00:54 25.24619 55.37633 27 ft 70 kts 301°
2026-04-25 00:55 25.24763 55.37366 28 ft 30 kts 290°
2026-04-25 00:55 25.24781 55.37159 29 ft 15 kts 271°
2026-04-25 00:55 25.24783 55.37070 27 ft 10 kts 272°
2026-04-25 00:55 25.24786 55.37011 27 ft 12 kts 278°
2026-04-25 00:56 25.24831 55.36892 27 ft 19 kts 297°
2026-04-25 00:56 25.24868 55.36756 26 ft 19 kts 281°
2026-04-25 00:56 25.24916 55.36624 26 ft 19 kts 299°
2026-04-25 00:56 25.24984 55.36503 26 ft 19 kts 302°
2026-04-25 00:57 25.25038 55.36406 26 ft 19 kts 302°
2026-04-25 00:57 25.25092 55.36311 26 ft 19 kts 302°
2026-04-25 00:57 25.25159 55.36191 26 ft 19 kts 301°
2026-04-25 00:57 25.25227 55.36069 31 ft 19 kts 302°
2026-04-25 00:58 25.25295 55.35951 31 ft 16 kts 302°
2026-04-25 00:58 25.25344 55.35864 29 ft 8 kts 293°
2026-04-25 00:58 25.25324 55.35806 29 ft 9 kts 225°
2026-04-25 00:58 25.25269 55.35764 27 ft 10 kts 211°
2026-04-25 00:59 25.25212 55.35726 28 ft 7 kts 211°
2026-04-25 00:59 25.25197 55.35716 29 ft 1 kts 211°
2026-04-25 00:59 25.25197 55.35715 26 ft 0 kts 211°